Weather History for La Grande Riviere, QC

Change the Weather History Date:

Saturday, June 22, 2013

  Actual Average Record
Temperature  
Mean Temperature 55 °F -  
Max Temperature 68 °F 65 °F 82 °F (2003)
Min Temperature 42 °F 45 °F 35 °F (2005)
Degree Days  
Heating Degree Days 10    
Growing Degree Days 5 (Base 50)    
Moisture  
Dew Point 38 °F    
Average Humidity 50    
Maximum Humidity 70    
Minimum Humidity 26    
Precipitation  
Precipitation 0.00 in - - ()
Sea Level Pressure  
Sea Level Pressure 30.08 in    
Wind  
Wind Speed 9 mph ()    
Max Wind Speed 16 mph    
Max Gust Speed 25 mph    
Visibility 15.0 miles    
Events      
Averages and records for this station are not official NWS values.
T = Trace of Precipitation, MM = Missing Value Source: Averaged Metar Reports

Daily Weather History Graph

Daily Weather History Graph

Search for Another Location

Airport:

Trip Planner

Search our weather history database for the weather conditions in past years. The results will help you decide how hot, cold, wet, or windy it might be!

Date:

Astronomy

Jun. 22, 2013 Rise Set
Actual Time 4:40 AM EDT 9:44 PM EDT
Civil Twilight 3:47 AM EDT 10:38 PM EDT
Nautical Twilight 2:08 AM EDT 12:16 AM EDT
Astronomical Twilight Sun does not rise Sun does not rise
Moon 8:46 PM EDT (6/22) 4:02 AM EDT (6/22)
Length of Visible Light 18h 50m
Length of Day
17h 03m
Waxing Gibbous, 99% of the Moon is Illuminated
Jun 22
Waxing Gibbous
Jun 23
Full
Jun 30
Last Quarter
Jul 8
New
Jul 15
First Quarter

Hourly Weather History & Observations

Time (EDT) Temp. Windchill Dew Point Humidity Pressure Visibility Wind Dir Wind Speed Gust Speed Precip Events Conditions
12:00 AM 46.4 °F 41.9 °F 33.8 °F 62% 30.08 in 15.0 mi SSW 9.2 mph - N/A   Partly Cloudy
1:00 AM 46.4 °F 41.1 °F 32.0 °F 57% 30.07 in 15.0 mi SSW 11.5 mph - N/A   Partly Cloudy
2:00 AM 47 °F - 30 °F 40% 30.05 in 15 mi SSW 11.5 mph - -   Partly Cloudy
2:00 AM 48.2 °F - 30.2 °F 50% 30.05 in 15.0 mi SW 10.4 mph 19.6 mph N/A   Scattered Clouds
3:00 AM 48.2 °F - 30.2 °F 50% 30.04 in 15.0 mi SW 10.4 mph - N/A   Partly Cloudy
4:00 AM 48.2 °F - 32.0 °F 54% 30.01 in 15.0 mi WSW 10.4 mph - N/A   Partly Cloudy
5:00 AM 44.6 °F 38.8 °F 32.0 °F 61% 30.03 in 15.0 mi West 11.5 mph - N/A   Partly Cloudy
6:00 AM 42.8 °F 36.6 °F 33.8 °F 70% 30.05 in 15.0 mi West 11.5 mph - N/A   Partly Cloudy
7:00 AM 46.4 °F 41.5 °F 35.6 °F 66% 30.06 in 15.0 mi WNW 10.4 mph - N/A   Partly Cloudy
8:00 AM 48 °F - 38 °F 57% 30.07 in 15 mi NW 9.2 mph - -   Scattered Clouds
8:00 AM 48.2 °F - 37.4 °F 66% 30.07 in 15.0 mi NW 9.2 mph - N/A   Partly Cloudy
9:00 AM 51.8 °F - 39.2 °F 62% 30.08 in 15.0 mi NNW 5.8 mph - N/A   Partly Cloudy
10:00 AM 55.4 °F - 39.2 °F 54% 30.09 in 15.0 mi NW 3.5 mph - N/A   Partly Cloudy
11:00 AM 57.2 °F - 39.2 °F 51% 30.10 in 15.0 mi West 8.1 mph - N/A   Partly Cloudy
12:00 PM 60.8 °F - 39.2 °F 45% 30.09 in 15.0 mi West 4.6 mph - N/A   Partly Cloudy
1:00 PM 66.2 °F - 41.0 °F 40% 30.10 in 15.0 mi West 12.7 mph 20.7 mph N/A   Partly Cloudy
2:00 PM 67 °F - 40 °F 26% 30.12 in 15 mi WNW 13.8 mph - -   Partly Cloudy
2:00 PM 66.2 °F - 41.0 °F 40% 30.12 in 15.0 mi NW 15.0 mph 23.0 mph N/A   Scattered Clouds
3:00 PM 66.2 °F - 41.0 °F 40% 30.13 in 15.0 mi WNW 16.1 mph 25.3 mph N/A   Scattered Clouds
4:00 PM 66.2 °F - 41.0 °F 40% 30.12 in 15.0 mi NW 12.7 mph 20.7 mph N/A   Partly Cloudy
5:00 PM 66.2 °F - 41.0 °F 40% 30.11 in 15.0 mi NNW 13.8 mph 23.0 mph N/A   Partly Cloudy
6:00 PM 66.2 °F - 41.0 °F 40% 30.09 in 15.0 mi NW 11.5 mph 18.4 mph N/A   Mostly Cloudy
7:00 PM 64.4 °F - 41.0 °F 42% 30.09 in 15.0 mi WNW 12.7 mph - N/A   Mostly Cloudy
8:00 PM 64 °F - 42 °F 33% 30.09 in 15 mi WNW 8.1 mph - -   Clear
8:00 PM 64.4 °F - 42.8 °F 45% 30.09 in 15.0 mi WNW 9.2 mph - N/A   Mostly Cloudy
9:00 PM 60.8 °F - 42.8 °F 52% 30.07 in 15.0 mi WNW 5.8 mph - N/A   Mostly Cloudy
10:00 PM 57.2 °F - 42.8 °F 59% 30.06 in 15.0 mi WSW 5.8 mph - N/A   Partly Cloudy
11:00 PM 53.6 °F - 42.8 °F 67% 30.07 in 15.0 mi WSW 5.8 mph - N/A   Partly Cloudy